Regional Weather Roundup
Issued by NWS Wilmington, NC

Home | Current Version | Previous Version | Text Only | Print | Product List | Glossary On
Versions: 1 2 3 4 5 6 7 8 9 10 11 12 13 14 15 16 17 18 19 20 21 22 23 24 25 26 27 28
000
ASUS42 KILM 202313
RWRILM
RWRILM
REGIONAL HOURLY WEATHER ROUNDUP
NATIONAL WEATHER SERVICE WILMINGTON NC
700 PM EDT SUN AUG 20 2017

NOTE: "FAIR" INDICATES FEW OR NO CLOUDS BELOW 12,000 FEET WITH NO
SIGNIFICANT WEATHER AND/OR OBSTRUCTIONS TO VISIBILITY.

...............WFO WILMINGTON COUNTY WARNING AREA...............

......COASTAL NC AND SC COUNTIES......

CITY           SKY/WX    TMP DP  RH WIND       PRES   REMARKS
WILMINGTON     PTCLDY    84  75  74 E6        30.10R HX  92
N MYRTLE BEACH CLOUDY    84  75  74 SE6       30.09R HX  92
MYRTLE BEACH   MOSUNNY   86  77  74 MISG      30.10R HX  97

......INLAND NC AND SC COUNTIES.......

CITY           SKY/WX    TMP DP  RH WIND       PRES   REMARKS
LUMBERTON      MOSUNNY   88  73  61 SE8       30.07R HX  95
ELIZABETHTOWN  NOT AVBL
WHITEVILLE     CLOUDY    85  72  65 E3        30.08S HX  91
FLORENCE       MOSUNNY   91  73  55 SE9       30.07R HX  99
DARLINGTON     SUNNY     91  74  57 E7        30.08R HX 100
KINGSTREE      FAIR      86  75  70 E7        30.07R HX  95
HARTSVILLE     FAIR      90  70  51 SE3       30.07R HX  95
BENNETTSVILLE  FAIR      91  70  49 SE6       30.07R HX  97
CONWAY         FAIR      84  77  79 SE3       30.09R HX  94
GEORGETOWN     FAIR      86  79  79 S6        30.09R HX  99
MARION         FAIR      86  70  58 SE6       30.07R HX  90

....................REST OF NORTH CAROLINA......................

.........EASTERN NC.........

CITY           SKY/WX    TMP DP  RH WIND       PRES   REMARKS
CAPE HATTERAS  PTCLDY    82  78  88 E7        30.11R HX  91
JACKSONVILLE   PTCLDY    83  75  77 SE6       30.10R HX  90
MOREHEAD CITY  PTCLDY    83  77  82 SE6       30.10S HX  92
KENANSVILLE    CLOUDY    86  73  66 CALM      30.09S HX  93
NEW BERN       PTCLDY    84  73  69 CALM      30.10S HX  90
ELIZABETH CITY CLEAR     83  74  74 E8        30.12R

.........CENTRAL NC.........

CITY           SKY/WX    TMP DP  RH WIND       PRES   REMARKS
RALEIGH DURHAM MOSUNNY   90  68  48 E9        30.10R HX  94
ROCKY MOUNT    SUNNY     84  75  74 E3        30.09S HX  92
ROANOKE RAPIDS NOT AVBL
FAYETTEVILLE   CLOUDY    90  72  55 SE7       30.08R HX  97
HOFFMAN        SUNNY     91  66  43 SE8       30.08R HX  94

.........WESTERN NC.........

CITY           SKY/WX    TMP DP  RH WIND       PRES   REMARKS
CHARLOTTE      MOSUNNY   91  70  49 NW5       30.09R HX  96
GREENSBORO     MOSUNNY   89  66  46 N6        30.11R HX  91
HICKORY        NOT AVBL
BOONE          NOT AVBL
ASHEVILLE      NOT AVBL

.....................REST OF SOUTH CAROLINA.....................

.........EASTERN SC.........

CITY           SKY/WX    TMP DP  RH WIND       PRES   REMARKS
CHARLESTON     PTSUNNY   86  77  74 S9        30.07R HX  97
BEAUFORT MCAS  CLOUDY    87  81  82 SE3       30.07S HX 104
HILTON HEAD    PTSUNNY   86  79  79 SE7       30.08R HX  99

.........CENTRAL SC.........

CITY           SKY/WX    TMP DP  RH WIND       PRES   REMARKS
COLUMBIA       MOSUNNY   92  70  48 SE10      30.05R HX  97
ORANGEBURG     CLOUDY    91  69  48 SE6       30.06R HX  96
SUMTER SHAW    CLOUDY    93  67  42 SE7       30.04R HX  96

.........WESTERN SC.........

CITY           SKY/WX    TMP DP  RH WIND       PRES   REMARKS
GREENVILLE     NOT AVBL
ROCK HILL        N/A     91  66  43 CALM      30.09R HX  93
ANDERSON       SUNNY     92  63  38 E6        30.07S HX  93
CLEMSON        NOT AVBL
GREENWOOD      MOSUNNY   90  66  45 S5        30.07R HX  92


...................COASTAL AND OFFSHORE REPORTS..................

................LOCAL PIERS AND NC RESERVE................


STATION/POSITION TIME  SKY/WX   TEMP    WIND        PRES    VSBY
                                AIR SEA DIR/SP/G
                 (UTC)          (F)     (DEG/KT/KT) (MB)    (MI)
JOHNY MRCER PIER 2236            84 86  120/  8/ 10 1018.3R
NC RESRV MASNBRO NOT AVBL
OCEAN CREST PIER NOT AVBL
SPRINGMAID  PIER 2236                               1018.2R


................COASTAL AND OFFSHORE BUOYS................


STATION/POSITION TIME  SKY/WX   TEMP    WIND        PRES    VSBY
                                AIR SEA DIR/SP/G
                 (UTC)          (F)     (DEG/KT/KT) (MB)    (MI)
DIMNDSHOAL 41025 2250            82 85   60/  6/  6 1019.3S
WVE H/P(F/S)=  2/ 9 SWL H/P/D(F/S/D)=  2/120/ 9

CAPE LOOKOUT     2300            82     100/  6/  7 1019.0R
ONSLOW BAY 41036 NOT AVBL
ONSLOW BAY 41064 2208            82 84  110/  6/ 10 1019.1R
ONSLOW BAY 41159 2243               84                N/A
WVE H/P(F/S)=  3/ 8

MASNBO INL 41110 2259               85                N/A
WVE H/P(F/S)=  2/ 8

WILM HARBR 41108 2230               85                N/A
WVE H/P(F/S)=  2/ 4

27SE WRITB 41037 2208            83 84  100/  8/ 10 1018.9R
FRYING PAN 41013 2300            85 86  130/ 12/ 14 1018.9
SUNST NRSH 41024 2208            83 87   60/  4/  6 1018.5R
CAPRS NRSH 41029 2208            85 88  170/ 10/ 16 1017.9R
EDISTO     41004 2300            85 86  170/  8/  8 1018.1


..........OFFSHORE BUOYS BEYOND 100 NM OFFSHORE...........
.....IN A TRIANGLE---HAT TO BERMUDA TO BAHAMAS TO HAT.....


STATION/POSITION TIME  SKY/WX   TEMP    WIND        PRES    VSBY
                                AIR SEA DIR/SP/G
                 (UTC)          (F)     (DEG/KT/KT) (MB)    (MI)
150E HAT   41001 2300               82  230/  6/ 10 1020.2
W BERMUDA  41048 2300            83 85  190/  6/  8 1021.2
ATLANTIC S 41049 2250            84 85   90/  8/ 10 1021.8R
WVE H/P(F/S)=  6/ 9 SWL H/P/D(F/S/D)=  7/130/ 9

E BAHAMAS  41046 2300            83 84  110/ 23/ 27 1016.0
NE BAHAMAS 41047 2300            84 85   80/ 14/ 16 1019.7
120E CANVRL41010 2300            78 85  150/  6/  8 1018.2

END




USA.gov is the U.S. government's official web portal to all federal, state and local government web resources and services.